• In Hungary
  • List of Countries
  • For 7 days
  • Water Temperature
  • Satellite Maps
  • Weather Map
  • News
  • Weather Widgets
  • user-avatar
    Login

    Hourly Weather Prägraten

    Today, 24 February, Saturday

    Time Temperature Precipitation Wind Pressure Humidity
    00:00 -12°C° 0 mm 1 mps 569 mmHg 87%
    01:00 -12°C° 0 mm 1 mps 569 mmHg 84%
    02:00 -12°C° 0 mm 1 mps 569 mmHg 85%
    03:00 -12°C° 0 mm 1 mps 569 mmHg 85%
    04:00 -12°C° 0 mm 1 mps 569 mmHg 86%
    05:00 -12°C° 0 mm 1 mps 569 mmHg 87%
    06:00 -12°C° 0 mm 1 mps 569 mmHg 88%
    07:00 -14°C° 0 mm 1 mps 568 mmHg 86%
    08:00 -12°C° 0 mm 1 mps 570 mmHg 86%
    09:00 -9°C° 0 mm 1 mps 571 mmHg 85%
    10:00 -6°C° 0 mm 1 mps 572 mmHg 85%
    11:00 -6°C° 0 mm 1 mps 572 mmHg 88%
    12:00 -4°C° 0 mm 1 mps 572 mmHg 91%
    13:00 -7°C° 0 mm 2 mps 572 mmHg 93%
    14:00 -7°C° 0.1 mm 2 mps 572 mmHg 93%
    15:00 -7°C° 0.1 mm 2 mps 572 mmHg 92%
    16:00 -7°C° 0.1 mm 2 mps 572 mmHg 91%
    17:00 -9°C° 0 mm 2 mps 571 mmHg 93%
    18:00 -10°C° 0 mm 2 mps 571 mmHg 94%
    19:00 -10°C° 0 mm 1 mps 571 mmHg 95%
    20:00 -12°C° 0 mm 1 mps 570 mmHg 95%
    21:00 -13°C° 0 mm 1 mps 570 mmHg 95%
    22:00 -14°C° 0 mm 1 mps 570 mmHg 95%
    23:00 -15°C° 0 mm 1 mps 569 mmHg 94%

    Tomorrow, 25 February, Sunday

    Time Temperature Precipitation Wind Pressure Humidity
    00:00 -15°C° 0 mm 1 mps 569 mmHg 93%
    01:00 -16°C° 0 mm 1 mps 569 mmHg 92%
    02:00 -16°C° 0 mm 1 mps 569 mmHg 91%
    03:00 -17°C° 0 mm 1 mps 568 mmHg 91%
    04:00 -17°C° 0 mm 1 mps 568 mmHg 91%
    05:00 -18°C° 0 mm 1 mps 568 mmHg 91%
    06:00 -21°C° 0 mm 2 mps 567 mmHg 92%
    07:00 -23°C° 0 mm 2 mps 567 mmHg 92%
    08:00 -20°C° 0 mm 2 mps 568 mmHg 90%
    09:00 -19°C° 0 mm 2 mps 569 mmHg 87%
    10:00 -17°C° 0 mm 2 mps 569 mmHg 84%
    11:00 -16°C° 0 mm 2 mps 570 mmHg 82%
    12:00 -16°C° 0 mm 2 mps 570 mmHg 81%
    13:00 -15°C° 0 mm 2 mps 570 mmHg 79%
    14:00 -16°C° 0.1 mm 2 mps 570 mmHg 81%
    15:00 -16°C° 0.1 mm 2 mps 569 mmHg 83%
    16:00 -16°C° 0.1 mm 2 mps 569 mmHg 84%
    17:00 -18°C° 0.1 mm 2 mps 568 mmHg 87%
    18:00 -20°C° 0.1 mm 2 mps 568 mmHg 90%
    19:00 -21°C° 0.1 mm 2 mps 567 mmHg 93%
    20:00 -23°C° 0 mm 2 mps 567 mmHg 94%
    21:00 -24°C° 0 mm 2 mps 566 mmHg 94%
    22:00 -25°C° 0 mm 2 mps 566 mmHg 94%
    23:00 -26°C° 0 mm 2 mps 566 mmHg 94%

    Day after tomorrow, 26 February, Monday

    Time Temperature Precipitation Wind Pressure Humidity
    00:00 -26°C° 0 mm 2 mps 565 mmHg 94%
    01:00 -27°C° 0 mm 2 mps 565 mmHg 94%
    02:00 -27°C° 0 mm 2 mps 565 mmHg 93%
    03:00 -28°C° 0 mm 2 mps 564 mmHg 93%
    04:00 -28°C° 0 mm 2 mps 564 mmHg 93%
    05:00 -29°C° 0 mm 2 mps 564 mmHg 93%
    06:00 -29°C° 0 mm 2 mps 563 mmHg 93%
    07:00 -29°C° 0 mm 2 mps 563 mmHg 93%
    08:00 -27°C° 0 mm 2 mps 564 mmHg 90%
    09:00 -26°C° 0 mm 2 mps 565 mmHg 88%
    10:00 -24°C° 0 mm 2 mps 566 mmHg 85%
    11:00 -23°C° 0 mm 2 mps 566 mmHg 83%
    12:00 -21°C° 0 mm 2 mps 566 mmHg 80%
    13:00 -22°C° 0 mm 3 mps 566 mmHg 78%
    14:00 -22°C° 0.1 mm 3 mps 566 mmHg 79%
    15:00 -23°C° 0.1 mm 3 mps 566 mmHg 81%
    16:00 -23°C° 0.1 mm 3 mps 566 mmHg 82%
    17:00 -23°C° 0.1 mm 2 mps 565 mmHg 85%
    18:00 -24°C° 0.1 mm 2 mps 565 mmHg 89%
    19:00 -25°C° 0.1 mm 2 mps 565 mmHg 92%
    20:00 -26°C° 0.1 mm 2 mps 564 mmHg 93%
    21:00 -26°C° 0.1 mm 2 mps 564 mmHg 93%
    22:00 -27°C° 0.1 mm 2 mps 564 mmHg 93%
    23:00 -27°C° 0.1 mm 2 mps 564 mmHg 93%

    27 February, Tuesday

    Time Temperature Precipitation Wind Pressure Humidity
    00:00 -28°C° 0.1 mm 2 mps 563 mmHg 93%
    01:00 -28°C° 0.1 mm 2 mps 563 mmHg 92%
    02:00 -29°C° 0 mm 2 mps 563 mmHg 92%
    03:00 -29°C° 0 mm 2 mps 562 mmHg 92%
    04:00 -29°C° 0 mm 2 mps 562 mmHg 92%
    05:00 -29°C° 0 mm 2 mps 562 mmHg 92%
    06:00 -29°C° 0 mm 2 mps 562 mmHg 92%
    07:00 -30°C° 0 mm 2 mps 561 mmHg 92%
    08:00 -28°C° 0 mm 2 mps 563 mmHg 89%
    09:00 -25°C° 0 mm 2 mps 564 mmHg 86%
    10:00 -23°C° 0 mm 2 mps 565 mmHg 83%
    11:00 -19°C° 0 mm 1 mps 565 mmHg 80%
    12:00 -18°C° 0 mm 1 mps 565 mmHg 77%
    13:00 -17°C° 0 mm 1 mps 565 mmHg 74%
    14:00 -17°C° 0.1 mm 1 mps 565 mmHg 76%
    15:00 -17°C° 0.1 mm 1 mps 565 mmHg 79%
    16:00 -18°C° 0.1 mm 1 mps 565 mmHg 81%
    17:00 -19°C° 0.1 mm 1 mps 564 mmHg 85%
    18:00 -20°C° 0.1 mm 1 mps 564 mmHg 90%
    19:00 -22°C° 0.1 mm 1 mps 564 mmHg 94%
    20:00 -23°C° 0 mm 1 mps 563 mmHg 94%
    21:00 -23°C° 0 mm 1 mps 563 mmHg 94%
    22:00 -24°C° 0 mm 1 mps 563 mmHg 93%
    23:00 -24°C° 0 mm 1 mps 563 mmHg 93%

    28 February, Wednesday

    Time Temperature Precipitation Wind Pressure Humidity
    00:00 -25°C° 0 mm 1 mps 563 mmHg 92%
    01:00 -25°C° 0 mm 1 mps 563 mmHg 91%
    02:00 -27°C° 0 mm 1 mps 563 mmHg 90%
    03:00 -27°C° 0 mm 1 mps 562 mmHg 90%
    04:00 -27°C° 0 mm 1 mps 562 mmHg 89%
    05:00 -27°C° 0 mm 1 mps 562 mmHg 88%
    06:00 -27°C° 0 mm 1 mps 563 mmHg 87%
    07:00 -27°C° 0 mm 1 mps 563 mmHg 86%
    08:00 -23°C° 0 mm 1 mps 565 mmHg 80%
    09:00 -20°C° 0 mm 1 mps 566 mmHg 73%
    10:00 -17°C° 0 mm 0 mps 568 mmHg 67%
    11:00 -16°C° 0 mm 1 mps 568 mmHg 64%
    12:00 -15°C° 0 mm 1 mps 569 mmHg 61%
    13:00 -14°C° 0 mm 1 mps 569 mmHg 58%
    14:00 -14°C° 0 mm 1 mps 569 mmHg 63%
    15:00 -14°C° 0 mm 1 mps 569 mmHg 68%
    16:00 -14°C° 0 mm 1 mps 569 mmHg 73%
    17:00 -16°C° 0 mm 1 mps 568 mmHg 79%
    18:00 -18°C° 0 mm 1 mps 567 mmHg 85%
    19:00 -20°C° 0 mm 1 mps 567 mmHg 91%
    20:00 -20°C° 0 mm 1 mps 567 mmHg 90%
    21:00 -23°C° 0 mm 2 mps 567 mmHg 90%
    22:00 -23°C° 0 mm 2 mps 567 mmHg 89%
    23:00 -23°C° 0 mm 2 mps 567 mmHg 87%

    1 March, Thursday

    Time Temperature Precipitation Wind Pressure Humidity
    00:00 -23°C° 0 mm 2 mps 566 mmHg 86%
    01:00 -23°C° 0 mm 2 mps 566 mmHg 85%
    02:00 -21°C° 0 mm 2 mps 566 mmHg 85%
    03:00 -21°C° 0 mm 2 mps 566 mmHg 85%
    04:00 -21°C° 0 mm 2 mps 566 mmHg 86%
    05:00 -20°C° 0 mm 2 mps 566 mmHg 86%
    06:00 -20°C° 0 mm 2 mps 566 mmHg 85%
    07:00 -20°C° 0 mm 2 mps 565 mmHg 85%
    08:00 -18°C° 0 mm 2 mps 566 mmHg 84%
    09:00 -16°C° 0 mm 3 mps 567 mmHg 84%
    10:00 -14°C° 0 mm 3 mps 568 mmHg 83%
    11:00 -13°C° 0 mm 3 mps 568 mmHg 84%
    12:00 -12°C° 0 mm 3 mps 568 mmHg 86%
    13:00 -10°C° 0 mm 3 mps 568 mmHg 88%
    14:00 -10°C° 0.1 mm 3 mps 568 mmHg 89%
    15:00 -10°C° 0.1 mm 3 mps 567 mmHg 90%
    16:00 -10°C° 0.1 mm 3 mps 567 mmHg 92%
    17:00 -10°C° 0.1 mm 3 mps 566 mmHg 92%
    18:00 -10°C° 0.1 mm 2 mps 566 mmHg 93%
    19:00 -12°C° 0.1 mm 2 mps 565 mmHg 94%
    20:00 -12°C° 0.1 mm 2 mps 565 mmHg 94%
    21:00 -12°C° 0.1 mm 2 mps 565 mmHg 93%
    22:00 -12°C° 0.1 mm 2 mps 565 mmHg 93%
    23:00 -12°C° 0 mm 2 mps 565 mmHg 93%
    Show more